map of LBV home
LBV - Airport
Location
City:  Libreville, Estuaire, Gabon
Name:Léon M'Ba International Airport
ICAO:FOOL
IATA:LBV

Details
Type:Airport (Aerodrome, Airfield)
Use:Public/Civil, International (customs port of entry)
Latitude:0°27'30"N (0.458333)
Longitude:9°24'44"E (9.412222)
Elevation:39 ft (12 m)
Variation:1.68°W (WMM2015v2 magnetic declination)
0.15° annual change
Runways:1
Longest:9843 × 148 ft (3000 × 45 m)

Time
Time Zone:UTC+1
Local Time:

Weather
METAR:FOOL 041400Z VRB03KT 7000 TS SCT013 FEW020CB SCT030 27/26 Q1009 NOSIG
TAF:FOOL 041100Z 0412/0518 18008KT 9999 SCT014 SCT026
TEMPO 0414/0419 3500 TSRA BKN010 FEW020CB OVC026 PROB30
TEMPO 0502/0507 TS BKN008 FEW016CB
TEMPO 0514/0518 TS BKN008 FEW016CB

Related Locations
Nearby:
Farthest:CIS: 12257 mi / 19725 km
Kanton Island (Canton Island, Abariringa Island) [Canton Island Airport], P, KI

Find:

   beyond  
but within

Other Information
Maps:
NOTAMs:
Links:
Sources:

  
  • flag of Gabon
  

Sectional Chart

Flight Planning
at skyvector.com

Satellite Image

Google Maps Satellite view

 

Copyright © 2004-2019 Karl L. Swartz. All rights reserved.
The Great Circle Mapper name and logo are trademarks of the Great Circle Mapper.
All other trademarks mentioned herein belong to their respective owners.
Please see credits for attibutions and further copyright information.

  Follow gcmap on Facebook Follow gcmap on Twitter GCmap on LinkedIn

hCard Microformat

Geo Microformat